Back to catalog

THORAD AGENA D DEB

AlivePO
NORAD 4943·DEBRIS·🇺🇸 United States

Launched Apr 8, 1970 from Vandenberg Space Force Base

Loading…

Next Passes (next 24 hours)

TLE

FreshSource: Space-Track

Epoch: Sep 14, 2026, 09:01 UTC

1 04943U 70025GD  26257.37570116  .00000170  00000-0  52604-3 0  9994
2 04943  99.6519 213.5904 0227754 327.4624 199.8289 13.10684907693407

Track THORAD AGENA D DEB in real time with AllMySat

Download on the App Store